Wind_Speed
29 29 29 28 27 28 29 29 30 28 26 25 27 28 28 28 29 29 30 31 31 32 33 34 35 38 39 39 40 41 42 45 46 45 45 47 50 51 53 55 55 53 53 54
29 30 30 29 28 27 28 29 29 29 27 25 26 27 27 28 28 28 29 30 31 32 33 34 36 38 38 39 40 41 41 42 44 46 46 46 46 48 51 53 54 54 54 55
29 30 31 30 28 28 27 27 28 29 27 26 25 26 26 26 27 27 28 29 29 31 32 34 36 37 38 38 39 40 40 41 42 45 46 46 45 47 49 51 52 53 54 54
29 29 30 29 29 29 28 27 27 28 28 27 26 26 26 25 26 27 28 28 29 29 31 33 35 36 37 38 38 39 40 40 41 43 44 44 45 45 46 48 50 53 55 55
29 29 29 29 29 29 29 28 27 27 28 27 27 26 25 25 24 26 27 29 29 29 30 32 34 36 36 37 39 39 39 39 40 42 42 42 42 43 45 46 48 51 53 54
30 30 29 29 29 29 30 29 28 27 27 27 27 27 26 25 25 25 26 26 27 28 29 30 32 34 36 37 37 38 38 37 38 40 42 41 41 42 43 44 46 48 52 53
30 30 29 29 28 29 29 29 29 27 27 27 27 27 27 26 26 25 25 25 25 26 27 28 30 32 34 34 35 36 36 37 38 39 40 41 41 41 42 42 44 47 49 50
30 29 29 28 28 28 28 29 29 29 28 27 27 27 27 27 26 26 25 25 26 26 26 26 28 30 31 33 33 35 36 36 37 38 39 41 40 40 40 41 42 44 46 47
29 28 29 28 28 28 28 29 29 29 29 28 27 27 28 28 28 27 27 26 26 26 27 27 29 30 31 31 32 34 35 35 36 37 38 39 40 40 40 40 41 42 43 44
29 28 29 28 28 27 27 28 28 29 29 29 28 27 28 29 29 28 28 27 27 27 27 27 28 29 30 31 32 32 33 34 35 36 36 37 38 38 39 40 40 41 42 43
29 29 29 29 29 28 27 27 28 28 29 28 28 28 28 28 28 28 28 28 28 28 28 28 28 28 29 30 31 31 32 33 34 35 35 36 37 38 38 38 38 39 40 41
29 28 29 28 28 28 27 27 27 28 28 28 28 27 27 27 27 27 27 27 27 27 28 27 27 28 28 30 30 31 32 33 34 35 36 36 36 36 36 37 37 37 37 38
28 27 27 27 26 26 26 27 27 27 27 27 27 27 27 26 26 26 27 27 28 27 28 28 28 28 28 28 29 30 31 32 33 34 35 35 36 36 36 37 37 38 38 38
26 26 26 26 26 25 25 25 25 26 26 27 26 27 27 26 27 27 28 28 28 28 28 28 28 29 29 29 28 30 31 32 32 32 33 35 36 36 36 37 38 38 38 38
25 25 25 24 24 24 24 24 24 25 26 26 26 26 26 26 26 27 27 28 28 29 29 29 29 29 30 30 29 29 30 31 32 33 34 35 35 35 35 35 36 36 36 37
24 24 24 23 23 23 23 23 23 24 24 25 25 25 26 26 26 26 27 27 28 29 29 30 31 31 31 32 32 31 30 31 31 32 32 33 34 35 35 34 34 35 36 36
23 23 23 23 23 23 22 23 23 23 23 23 24 24 24 24 25 25 26 27 27 28 28 29 31 31 31 32 33 33 33 32 32 33 32 32 33 33 33 34 33 33 34 35
22 22 22 22 21 21 21 22 22 23 22 22 22 23 23 23 23 24 24 25 25 26 26 27 28 29 30 30 31 32 32 32 32 32 32 32 32 32 32 32 32 33 33 33
21 21 21 21 21 21 21 21 21 21 21 21 21 21 21 21 22 22 23 23 23 24 25 25 26 27 28 28 28 29 29 30 31 31 32 32 32 32 32 31 32 33 33 33
20 20 20 20 21 20 20 21 21 20 20 20 20 20 20 20 20 21 21 22 22 23 24 25 25 25 26 27 27 28 28 29 30 30 31 32 32 32 32 32 32 33 33 33
21 21 21 21 20 20 20 20 20 19 19 19 19 19 19 19 19 19 20 20 21 22 23 23 24 25 26 27 27 28 28 29 29 29 30 31 32 32 32 32 33 33 33 32
21 22 21 21 20 20 20 20 19 19 19 20 20 20 19 19 20 20 20 20 21 21 22 22 23 24 25 26 26 27 28 29 29 30 30 30 30 31 32 33 33 33 33 33
21 21 20 20 19 20 20 20 20 20 20 20 20 20 20 20 19 19 19 20 21 21 21 22 23 24 25 25 26 27 27 28 28 29 30 30 30 31 31 31 32 33 33 34
20 20 19 19 20 20 20 20 20 20 20 20 20 21 21 20 20 20 20 21 22 22 22 23 24 24 25 25 26 27 27 27 28 29 30 31 31 32 32 32 32 32 33 33
21 20 20 20 20 20 20 20 20 20 20 20 20 20 20 20 20 20 21 21 22 22 22 22 23 24 24 25 25 26 26 27 27 28 29 30 30 31 32 32 33 33 33 34
21 21 21 20 20 20 20 20 20 20 20 21 20 20 20 20 20 20 20 21 21 21 21 21 22 22 23 23 24 24 25 26 26 27 28 28 28 29 30 31 32 33 33 34
21 21 21 21 21 20 20 20 21 21 21 20 20 20 20 20 20 20 20 20 20 20 21 21 22 22 22 23 23 24 25 26 26 27 27 27 28 28 29 29 30 31 31 32
Wind_Direction
288 284 282 282 281 278 276 278 280 283 285 281 279 277 276 273 269 266 262 258 254 250 249 247 244 240 239 238 237 237 237 238 239 239 238 239 240 240 239 239 238 239 240 240
286 283 281 279 280 279 278 276 277 280 282 282 281 278 275 271 267 265 260 257 255 253 251 249 246 244 240 239 238 238 239 239 238 238 237 239 240 240 240 238 238 238 239 241
287 283 281 279 280 280 281 279 277 278 280 280 278 278 276 270 266 263 261 258 256 254 252 249 248 245 242 240 240 240 240 240 239 238 238 239 241 241 240 239 239 240 240 240
288 285 282 281 279 279 280 281 279 279 278 277 278 278 277 274 268 263 262 258 256 255 253 250 249 246 243 242 241 241 241 241 241 241 240 241 241 241 240 239 239 240 238 239
290 288 285 282 281 280 278 279 280 280 279 277 276 276 277 275 272 268 265 262 259 257 255 251 249 247 245 246 244 244 244 243 242 241 241 241 241 242 242 243 242 240 240 240
290 290 290 287 283 281 278 277 278 280 279 277 275 274 274 273 272 270 269 266 261 259 255 252 250 248 248 247 246 246 244 244 244 242 242 241 241 242 243 244 243 243 243 243
287 288 288 289 287 283 281 280 279 280 280 278 276 273 272 271 270 269 269 266 261 256 252 252 252 251 248 246 245 246 245 245 246 245 243 242 242 243 244 245 246 245 246 246
286 286 288 289 288 285 282 280 279 279 279 278 275 272 269 269 267 267 266 265 260 255 253 253 253 252 249 247 246 246 246 246 247 247 246 243 242 244 245 246 247 247 247 247
285 285 285 286 287 286 284 281 279 279 279 278 275 271 268 267 266 265 264 263 259 256 254 255 254 252 251 250 249 248 248 247 247 247 246 245 243 244 245 246 248 248 250 250
286 284 283 282 283 284 283 281 278 277 278 277 275 273 270 268 266 263 262 261 260 258 257 256 255 255 254 252 251 250 250 249 248 247 246 245 244 244 245 246 248 250 251 251
285 284 282 281 282 282 282 281 279 276 277 277 275 273 272 271 267 262 259 259 259 257 256 256 256 256 254 253 252 251 250 249 249 248 247 246 247 246 247 247 249 252 253 251
287 286 285 284 283 282 282 281 279 277 277 277 277 276 274 271 268 264 260 258 257 257 256 256 256 255 254 253 252 251 250 250 250 249 247 248 248 248 248 249 250 252 252 252
288 288 286 285 285 284 283 282 280 278 277 277 277 277 276 272 269 266 262 260 257 256 256 254 255 255 254 253 252 252 251 250 250 249 249 248 249 250 250 249 250 251 252 252
289 288 286 285 286 285 284 283 281 279 278 278 278 278 276 273 271 267 264 262 259 256 255 255 255 254 253 254 254 252 251 251 250 251 250 250 251 252 252 251 251 251 252 252
289 288 287 286 287 286 285 283 282 281 280 279 279 279 277 274 271 269 266 264 260 258 256 256 256 255 254 254 254 254 253 252 251 252 252 251 251 252 252 252 251 251 252 253
288 287 287 287 287 288 286 285 284 284 284 283 281 280 278 275 273 271 268 265 262 259 258 257 256 256 255 255 254 254 254 253 252 252 252 252 253 253 253 253 252 252 252 252
289 289 289 289 289 288 287 287 287 286 286 284 284 283 281 277 276 274 271 269 266 264 262 259 258 257 257 255 255 254 253 253 252 252 252 252 253 253 253 253 253 253 252 252
290 291 291 291 291 289 289 290 289 288 287 287 287 287 284 280 276 274 273 271 269 266 264 261 259 259 259 258 256 255 254 253 252 252 252 253 253 254 255 254 254 254 253 253
292 293 293 293 293 293 293 293 292 291 290 289 288 288 286 282 278 276 274 272 271 269 266 264 262 259 258 258 257 256 254 254 254 254 254 253 254 254 254 255 255 255 255 255
293 295 295 294 293 293 294 294 293 291 290 288 288 288 288 286 282 278 275 272 271 270 268 265 264 261 259 258 257 256 256 256 256 255 255 255 255 255 255 256 257 256 256 257
294 296 297 296 295 293 293 293 292 291 288 286 286 287 287 286 283 281 278 276 274 272 271 269 267 263 261 260 258 257 258 258 257 257 257 257 256 256 257 257 258 258 258 258
296 297 297 297 295 293 292 291 291 290 289 288 287 287 287 286 285 282 280 278 276 275 274 272 270 267 265 263 261 260 260 261 259 258 257 258 257 257 257 257 258 257 257 258
297 298 298 296 295 293 292 292 293 292 291 289 289 288 288 288 285 283 281 279 277 275 274 273 272 270 268 266 264 263 263 262 260 259 258 258 259 259 259 258 258 258 258 259
298 297 296 295 294 294 293 293 294 293 292 291 290 290 289 287 285 283 282 281 279 278 277 275 273 271 269 268 266 264 263 262 261 260 260 260 260 259 258 258 259 259 259 260
297 296 295 294 294 295 295 295 295 295 294 293 292 291 290 288 286 284 283 283 283 281 280 278 275 273 270 269 267 265 263 263 263 263 262 261 260 258 258 258 259 259 260 261
294 295 296 295 295 295 295 294 294 295 295 294 292 292 292 290 287 286 285 285 284 283 281 280 278 275 272 270 268 267 265 265 265 265 264 263 261 260 260 260 261 261 261 262
291 293 294 294 295 295 294 294 294 294 294 294 293 293 292 291 289 287 287 286 285 285 283 281 279 277 274 271 270 270 269 268 267 266 264 263 263 262 263 263 262 262 262 262
Height
5558 5556 5555 5553 5552 5551 5549 5548 5547 5547 5546 5546 5543 5542 5541 5539 5539 5539 5539 5540 5541 5543 5545 5547 5550 5553 5556 5560 5564 5568 5573 5577 5581 5586 5590 5595 5599 5603 5609 5614 5619 5625 5631 5636
5552 5549 5548 5547 5546 5544 5542 5541 5540 5539 5540 5539 5537 5535 5533 5532 5531 5532 5532 5533 5534 5536 5538 5540 5542 5545 5548 5552 5556 5560 5564 5568 5571 5575 5580 5585 5588 5592 5597 5602 5607 5613 5619 5624
5544 5542 5540 5540 5540 5537 5536 5535 5533 5532 5533 5532 5530 5528 5527 5525 5525 5524 5525 5526 5527 5529 5530 5532 5534 5537 5540 5544 5548 5552 5555 5558 5562 5565 5570 5574 5578 5581 5586 5590 5595 5601 5606 5612
5536 5535 5533 5536 5532 5530 5529 5528 5527 5525 5525 5524 5523 5522 5521 5519 5518 5518 5518 5519 5520 5522 5523 5525 5527 5530 5533 5536 5540 5543 5546 5550 5553 5556 5560 5564 5567 5571 5574 5578 5583 5588 5594 5599
5529 5526 5526 5527 5525 5523 5522 5522 5520 5518 5517 5516 5515 5515 5515 5513 5512 5511 5512 5512 5513 5515 5516 5517 5519 5522 5525 5528 5531 5535 5538 5541 5544 5547 5550 5554 5557 5560 5564 5568 5572 5576 5582 5587
5522 5519 5518 5521 5518 5514 5514 5514 5513 5512 5510 5509 5508 5508 5509 5507 5506 5505 5505 5505 5506 5507 5509 5511 5513 5515 5517 5520 5523 5526 5529 5532 5534 5537 5540 5543 5547 5550 5553 5557 5561 5565 5570 5575
5515 5512 5511 5512 5509 5507 5508 5508 5506 5504 5503 5501 5501 5501 5501 5500 5499 5499 5499 5499 5500 5501 5502 5504 5506 5508 5509 5512 5515 5518 5520 5523 5525 5527 5530 5533 5537 5540 5544 5547 5551 5555 5559 5563
5508 5506 5507 5504 5502 5501 5499 5498 5497 5496 5495 5494 5493 5493 5493 5493 5492 5492 5492 5493 5493 5494 5495 5497 5498 5500 5502 5504 5507 5509 5511 5514 5516 5518 5521 5524 5527 5530 5534 5537 5540 5544 5547 5550
5501 5501 5498 5496 5494 5492 5491 5490 5489 5488 5487 5486 5486 5485 5485 5485 5485 5485 5486 5486 5486 5487 5489 5490 5491 5493 5495 5496 5498 5500 5503 5505 5507 5509 5512 5514 5518 5521 5524 5527 5530 5533 5536 5539
5493 5492 5490 5488 5486 5485 5483 5481 5481 5480 5480 5479 5478 5477 5477 5477 5478 5478 5478 5479 5480 5481 5482 5483 5484 5485 5487 5488 5490 5492 5494 5497 5499 5501 5503 5506 5509 5511 5514 5518 5520 5523 5525 5528
5485 5484 5482 5480 5478 5477 5475 5474 5473 5472 5471 5470 5470 5469 5469 5469 5469 5470 5470 5471 5472 5473 5474 5476 5477 5478 5479 5480 5482 5484 5486 5488 5490 5492 5495 5497 5500 5502 5505 5508 5510 5512 5514 5517
5477 5476 5473 5472 5471 5469 5468 5466 5465 5465 5464 5463 5462 5462 5461 5461 5461 5462 5462 5463 5464 5465 5466 5468 5469 5470 5471 5472 5474 5476 5478 5480 5481 5483 5486 5488 5491 5493 5495 5498 5500 5502 5505 5507
5469 5467 5465 5464 5463 5461 5460 5459 5458 5457 5456 5456 5455 5454 5454 5453 5453 5453 5454 5455 5456 5457 5458 5459 5461 5462 5463 5464 5466 5467 5469 5471 5473 5475 5477 5479 5482 5484 5487 5489 5491 5493 5495 5497
5461 5459 5458 5457 5455 5454 5453 5451 5451 5450 5449 5448 5447 5447 5446 5446 5446 5446 5446 5446 5447 5449 5450 5451 5452 5454 5455 5456 5458 5459 5461 5463 5464 5466 5468 5470 5473 5475 5477 5479 5481 5483 5485 5487
5454 5452 5451 5450 5448 5447 5446 5445 5444 5443 5442 5441 5440 5439 5438 5438 5438 5438 5438 5438 5439 5440 5442 5443 5444 5445 5446 5448 5450 5451 5453 5454 5456 5458 5459 5461 5463 5465 5467 5469 5471 5473 5475 5476
5448 5446 5444 5443 5442 5441 5439 5438 5437 5436 5435 5434 5433 5432 5431 5430 5430 5430 5430 5430 5431 5432 5433 5434 5435 5436 5438 5439 5441 5442 5444 5445 5447 5449 5451 5453 5454 5456 5458 5460 5461 5463 5465 5466
5441 5440 5438 5437 5435 5434 5433 5432 5430 5429 5428 5427 5425 5424 5423 5422 5422 5422 5422 5422 5423 5423 5424 5425 5426 5427 5428 5430 5431 5433 5435 5436 5438 5440 5441 5443 5445 5446 5448 5450 5452 5453 5455 5456
5434 5433 5432 5430 5429 5428 5426 5425 5424 5422 5421 5420 5418 5417 5416 5415 5415 5415 5414 5414 5415 5415 5416 5416 5417 5418 5419 5420 5422 5423 5425 5427 5428 5430 5432 5434 5436 5437 5439 5440 5442 5444 5445 5447
5428 5427 5426 5424 5422 5421 5420 5418 5417 5416 5414 5413 5412 5411 5409 5408 5408 5407 5407 5407 5407 5407 5408 5408 5409 5410 5411 5412 5413 5414 5416 5417 5419 5421 5422 5424 5426 5428 5430 5431 5433 5434 5436 5437
5423 5421 5420 5418 5416 5415 5413 5412 5411 5409 5408 5407 5406 5405 5403 5402 5401 5401 5400 5400 5400 5400 5400 5400 5401 5401 5402 5403 5404 5406 5407 5408 5410 5411 5413 5415 5416 5418 5420 5421 5423 5425 5426 5427
5418 5416 5414 5412 5410 5409 5407 5406 5405 5403 5402 5401 5400 5399 5397 5396 5395 5395 5394 5394 5394 5393 5393 5393 5393 5394 5394 5395 5396 5397 5398 5399 5401 5402 5403 5405 5407 5408 5410 5411 5413 5414 5416 5417
5412 5409 5408 5406 5404 5403 5401 5400 5399 5398 5396 5395 5394 5392 5391 5390 5389 5388 5388 5387 5387 5386 5386 5386 5386 5386 5387 5387 5388 5389 5389 5390 5391 5393 5394 5395 5397 5398 5400 5401 5403 5404 5405 5406
5406 5404 5402 5400 5398 5397 5395 5394 5393 5392 5390 5389 5388 5386 5385 5384 5383 5382 5382 5381 5380 5380 5379 5379 5379 5378 5379 5379 5379 5380 5381 5381 5382 5383 5384 5386 5387 5388 5390 5391 5392 5393 5395 5396
5400 5398 5396 5394 5393 5391 5390 5388 5387 5386 5384 5383 5381 5380 5379 5377 5376 5375 5375 5374 5373 5373 5372 5371 5371 5371 5370 5370 5371 5371 5372 5372 5373 5374 5375 5376 5377 5378 5379 5381 5382 5383 5384 5385
5394 5392 5390 5388 5387 5385 5384 5382 5381 5379 5378 5376 5375 5374 5372 5371 5370 5369 5368 5367 5366 5365 5365 5364 5363 5363 5363 5363 5363 5363 5363 5363 5364 5365 5365 5366 5367 5368 5369 5370 5372 5373 5374 5375
5388 5386 5384 5383 5381 5379 5378 5376 5375 5374 5372 5371 5369 5368 5366 5365 5364 5363 5361 5360 5359 5358 5357 5356 5356 5355 5355 5355 5355 5355 5355 5355 5355 5355 5355 5356 5357 5358 5359 5360 5361 5362 5363 5364
5381 5380 5378 5377 5375 5373 5372 5370 5369 5367 5366 5364 5363 5361 5360 5359 5357 5356 5355 5354 5353 5351 5350 5349 5349 5348 5347 5347 5347 5346 5346 5346 5346 5346 5346 5347 5348 5348 5349 5350 5351 5351 5352 5353